Location: ??
(35.5052°N, 139.7262°E)
Time: 18:12:54
(UTC+00:00)

Cosmos 1455 - Pass Details

Date: 20 June 2021
Orbit: 496 x 522 km, 82.5° (Epoch: 29 July)

Event Time Altitude Azimuth Distance (km) Brightness Sun altitude
Rises 12:56:35 0° 6° (N) 2,631 6.6 -25.9°
Reaches altitude 10° 12:58:59 10° 20° (NNE) 1,735 5.4 -26.1°
Enters shadow 13:00:37 19° 40° (NE) 1,245 4.3 -26.3°
